This is the latest recevied weather packets stored in our database for station/object N7WGJ. If no packets are shown the sender has not sent any weather packets the latest 10 day(s).
| Time | Temp. | Humidity | Pressure | Rain* | Wind** | Luminosity | Snow |
|---|---|---|---|---|---|---|---|
| 1787871095 | 22.22° C | 65% | 1018.1 hPa | 0 mm | - | - | - |
| 1787870499 | 22.22° C | 65% | 1018.2 hPa | 0 mm | - | - | - |
| 1787869885 | 22.22° C | 67% | 1018.3 hPa | 0 mm | - | - | - |
| 1787869285 | 22.22° C | 66% | 1018.4 hPa | 0 mm | - | - | - |
| 1787868686 | 21.67° C | 67% | 1018.3 hPa | 0 mm | - | - | - |
| 1787868110 | 21.11° C | 71% | 1018.4 hPa | 0 mm | - | - | - |
| 1787867486 | 21.11° C | 70% | 1018.5 hPa | 0 mm | - | - | - |
| 1787866884 | 21.67° C | 69% | 1018.4 hPa | 0 mm | - | - | - |
| 1787866286 | 22.22° C | 65% | 1018.4 hPa | 0 mm | - | - | - |
| 1787865687 | 22.22° C | 66% | 1018.4 hPa | 0 mm | - | - | - |
| 1787865089 | 22.22° C | 67% | 1018.4 hPa | 0 mm | - | - | - |
| 1787864501 | 22.22° C | 67% | 1018.4 hPa | 0 mm | - | - | - |
| 1787863893 | 21.11° C | 69% | 1018.4 hPa | 0 mm | - | - | - |
| 1787863297 | 21.11° C | 70% | 1018.4 hPa | 0 mm | - | - | - |
| 1787862697 | 20.56° C | 71% | 1018.5 hPa | 0 mm | - | - | - |
| 1787862097 | 20.56° C | 71% | 1018.5 hPa | 0 mm | - | - | - |
| 1787861498 | 20.56° C | 70% | 1018.5 hPa | 0 mm | - | - | - |
| 1787860899 | 20.56° C | 69% | 1018.4 hPa | 0 mm | - | - | - |
| 1787860293 | 20.56° C | 70% | 1018.4 hPa | 0 mm | - | - | - |
| 1787859698 | 20.56° C | 71% | 1018.3 hPa | 0 mm | - | - | - |
| 1787859099 | 20.56° C | 71% | 1018.4 hPa | 0 mm | - | - | - |
| 1787858496 | 20.56° C | 71% | 1018.4 hPa | 0 mm | - | - | - |
| 1787857899 | 20.56° C | 71% | 1018.4 hPa | 0 mm | - | - | - |
| 1787857317 | 20° C | 73% | 1018.3 hPa | 0 mm | - | - | - |
| 1787856684 | 19.44° C | 76% | 1018.3 hPa | 0 mm | - | - | - |
* Rain latest hour (hover to see other rain measurements)
** Current wind speed in m/s (hover to see current wind gust speed)